Regional Weather Roundup
Issued by NWS Goodland, KS

Home | Current Version | Previous Version | Text Only | Print | Product List | Glossary Off
Versions: 1 2 3 4 5 6 7 8 9 10 11 12 13 14 15 16 17 18 19 20 21 22 23 24 25 26 27 28 29 30 31 32 33 34 35 36 37 38 39 40 41 42 43 44 45 46 47 48 49 50

000
ASUS43 KGLD 201608
RWRGLD

GOODLAND FORECAST AREA HOURLY WEATHER ROUNDUP
NATIONAL WEATHER SERVICE GOODLAND KS
1000 AM MDT SUN MAY 20 2018

...OFFICIAL OBSERVATIONS...

CITY           SKY/WX    TMP DP  RH WIND       PRES   REMARKS
GOODLAND KS    SUNNY     55  43  63 N14G24    30.21F
HILL CITY KS   MOSUNNY   57  51  80 N16       30.17F
IMPERIAL NEB   PTSUNNY   57  43  59 N12       30.22S
MCCOOK NEB     CLOUDY    53  46  77 N15       30.19F
AKRON CO       MOSUNNY   48  40  73 NW6       30.25F
BURLINGTON CO  MOSUNNY   55  42  61 N13       30.23F
LIMON CO       PTSUNNY   48  41  76 NW6       30.26F
$$

...UNOFFICIAL OBSERVATIONS...

CITY           SKY/WX    TMP DP  RH WIND       PRES   REMARKS
NORTON KS      CLOUDY    54  52  94 NW13      30.17  FOG
SHARON SPRINGS   N/A     57  45  64 MISG        N/A
KIT CARSON CO    N/A     54  42  62 MISG        N/A
YUMA CO        FAIR      50  36  57 NW7       30.25S
$$




USA.gov is the U.S. government's official web portal to all federal, state and local government web resources and services.